Skip Page Navigation
NASA JPL Caltech
NASA Logo - Jet Propulsion Laboratory + View the NASA Portal
+ Center for Near-Earth Object Studies
JPL Home Earth Solar System Stars & Galaxies Technology
JPL Solar System Dynamics
BODIES ORBITS EPHEMERIDES TOOLS PHYSICAL DATA DISCOVERY FAQ SITE MAP
IMPORTANT: The SSD Announcement email list is now available. Major changes are coming in the near future, including possible hostname and/or URL changes. To be notified of such changes, subscribe to this email list.

Please visit this page for more details.


JPL Small-Body Database Browser
Search: [ help ]  
35999 (1999 NB22)
Classification: Main-belt Asteroid          SPK-ID: 2035999
Ephemeris | Orbit Diagram | Orbital Elements | Mission Design | Physical Parameters | Discovery Circumstances ]

[ show orbit diagram ]
Orbital Elements at Epoch 2459000.5 (2020-May-31.0) TDB
Reference: JPL 27 (heliocentric ecliptic J2000)
 Element Value Uncertainty (1-sigma)   Units 
e .1300688849030643 3.8531e-08  
a 2.76506872896064 1.6657e-08 au
q 2.405419322704396 1.053e-07 au
i 10.0536378292725 4.2757e-06 deg
node 107.9939441980049 2.6726e-05 deg
peri 190.161845852825 3.2395e-05 deg
M 192.5061285928985 2.0337e-05 deg
tp 2459781.864620649445
(2022-Jul-21.36462065)
9.6996e-05 TDB
period 1679.41227383842
4.60
1.5176e-05
4.155e-08
d
yr
n .2143607055920781 1.937e-09 deg/d
Q 3.124718135216884 1.8824e-08 au
  Orbit Determination Parameters
   # obs. used (total)      960  
   data-arc span      7957 days (21.79 yr)  
   first obs. used      1998-03-24  
   last obs. used      2020-01-05  
   planetary ephem.      DE431  
   SB-pert. ephem.      SB431-N16  
   condition code      0  
   norm. resid. RMS      .56423  
   source      ORB  
   producer      Otto Matic  
   solution date      2020-Jan-29 05:13:29  

Additional Information
 Earth MOID = 1.3902 au 
 Jupiter MOID = 2.07627 au 
 T_jup = 3.305 
[ show covariance matrix ]

Ephemeris | Orbit Diagram | Orbital Elements | Mission Design | Physical Parameters | Discovery Circumstances ]

Physical Parameter Table
Parameter Symbol Value Units Sigma Reference Notes
absolute magnitude H 14.7   n/a MPO319523  
diameter diameter 3.508 km 1.045 urn:nasa:pds:neowise_diameters_albedos::2.0[mainbelt] (http://adsabs.harvard.edu/abs/2011ApJ...741...68M)  
geometric albedo albedo 0.227   0.116 urn:nasa:pds:neowise_diameters_albedos::2.0[mainbelt] (http://adsabs.harvard.edu/abs/2011ApJ...741...68M)  

35999 (1999 NB22)          Discovered 1999-Jul-14 by LINEAR at Socorro
Reference: 20020227/Numbers.arcLast Updated: 2004-04-19

Alternate Designations
 1999 NB22 = 1998 FC95 
Ephemeris | Orbit Diagram | Orbital Elements | Mission Design | Physical Parameters | Discovery Circumstances ]
ABOUT SSD CREDITS/AWARDS PRIVACY/COPYRIGHT GLOSSARY LINKS
FirstGov 2020-Feb-20 14:53 UT
(server date/time)  
NASA Home Page
Site Manager:   Ryan S. Park
Webmaster  Alan B. Chamberlin